TOZEUR current weather conditions

sailwx.info

Wind from 010 at 20 knots

Air temperature 20.0° C
Visibility: greater than 4.3 NM
Dewpoint 3.0° C

Last reported at 2014-Oct-23 03:00 UTC.
Time now 2014-Oct-23 04:43 UTC

Location: N 33°55' E 008°06'.
View on Google Maps.

See reports from other nearby stations

  
Tides and Currents Weather Stations Pressure Air Temp Water Temp Dewpoint Dewpoint Depression Visibility Wind Speed Wind Dir Waves Ship Positions
date/time (UTC)wind fromknots sea level pressurealtimeterstation pressurevisibilityair tempwater tempwave heightnotes
2014-Oct-23 03:00 010 20 4.320.0
2014-Oct-23 02:00 350 15 4.321.0
2014-Oct-23 01:00 330 12 4.322.0
2014-Oct-23 00:00 350 15 4.322.0
2014-Oct-22 23:00 350 11 4.322.0
2014-Oct-22 22:00 340 10 4.323.0
2014-Oct-22 21:00 020 15 4.323.0
2014-Oct-22 20:00 360 22 24.0
2014-Oct-22 19:00 360 13 25.0
2014-Oct-22 18:00 300 12 27.0
2014-Oct-22 17:00 260 8 28.0
2014-Oct-22 16:00 260 12 30.0
2014-Oct-22 15:00 240 11 31.0
2014-Oct-22 14:00 270 9 31.0
2014-Oct-22 13:00 260 5 30.0
2014-Oct-22 12:00 290 4 30.0
2014-Oct-22 11:00 290 3 29.0
2014-Oct-22 10:00 27.0
2014-Oct-22 09:00 310 3 26.0
2014-Oct-22 08:00 270 4 24.0
2014-Oct-22 07:00 250 4 21.0
2014-Oct-22 06:00 020 5 19.0
2014-Oct-22 05:00 150 4 20.0
2014-Oct-22 04:00 130 5 22.0
2014-Oct-22 01:00 300 5 22.0
2014-Oct-21 22:00 350 2 25.0
2014-Oct-21 21:00 140 2 23.0
2014-Oct-21 20:00 020 2 25.0
2014-Oct-21 19:00 350 1 26.0
2014-Oct-21 18:00 27.0
2014-Oct-21 17:00 100 3 28.0
2014-Oct-21 16:00 100 7 30.0
2014-Oct-21 15:00 140 4 31.0
2014-Oct-21 14:00 080 5 31.0
2014-Oct-21 13:00 30.0
2014-Oct-21 12:00 100 6 29.0
2014-Oct-21 11:00 100 6 28.0
2014-Oct-21 10:00 100 7 26.0
2014-Oct-21 09:00 100 9 25.0
2014-Oct-21 08:00 100 10 23.0
2014-Oct-21 07:00 100 10 21.0
2014-Oct-21 06:00 100 8 20.0
2014-Oct-21 05:00 100 8 21.0
2014-Oct-21 04:00 080 7 21.0